Theta_e
310 307 304 303 301 300 299 298 297 296 296 296 296 297 297 296 296 296 296 296 296 296 295 295 294 294 294 293 293 292 292 291 290 290 290 290 289 289 289 289 288 288 288 288 288 287 287 287 286 286 286 286 285 285 285 285 284 284 284 284 284 284 284 283 284 284 284 284 284 284 283 282 282 282 282 282 282 282 282 282 281 281 281 281 281
309 306 303 302 301 299 298 297 296 296 296 296 296 296 296 296 296 295 295 296 296 296 295 295 294 294 293 293 293 292 292 291 290 290 290 289 289 289 289 289 288 288 288 288 287 287 287 286 286 286 286 285 285 285 284 284 284 284 284 284 283 283 283 283 283 284 284 284 284 283 283 282 282 282 282 282 282 282 282 282 281 281 281 281 281
308 305 302 301 300 299 298 297 296 296 296 296 296 296 296 296 296 295 295 295 295 295 295 295 294 294 293 293 293 292 292 291 290 290 290 289 289 289 289 289 288 288 288 287 287 287 287 286 286 286 285 285 285 284 284 284 284 284 283 283 283 283 283 283 283 283 284 284 284 283 282 282 282 282 282 282 282 282 282 282 281 281 281 280 280
309 305 303 301 300 299 297 296 296 296 296 296 296 296 295 295 295 295 295 295 295 295 295 294 294 293 293 293 292 292 292 291 290 290 290 289 289 289 289 289 288 288 288 287 287 287 287 286 286 285 285 285 284 284 284 284 284 283 283 283 283 283 283 283 283 283 283 284 284 283 282 282 282 281 281 282 282 281 281 281 281 281 280 280 279
309 306 303 301 300 299 297 296 295 295 295 295 295 295 295 295 295 295 295 295 295 295 294 294 294 293 293 293 292 292 292 291 291 290 290 289 289 289 289 288 288 288 287 287 287 287 286 286 286 285 285 285 284 284 284 283 283 283 283 283 283 283 283 283 283 283 283 283 283 283 282 281 281 281 281 281 282 282 281 281 281 280 279 279 279
309 307 304 302 300 299 298 296 295 295 295 295 295 295 295 295 295 295 294 294 294 294 294 294 293 293 293 293 292 292 292 291 291 291 290 289 289 289 288 288 288 287 287 287 287 286 286 286 286 286 285 285 284 284 284 283 283 283 283 283 283 283 283 283 283 283 283 283 282 282 281 281 281 281 281 280 280 280 281 281 281 279 278 279 279
310 307 305 303 301 300 298 297 295 295 295 295 295 295 294 294 294 294 294 294 294 294 294 293 293 293 293 292 292 292 292 291 291 291 290 289 289 288 288 288 287 287 287 287 287 286 286 286 286 286 285 285 284 284 284 283 283 283 283 283 282 282 282 283 283 283 282 282 282 281 281 280 280 281 280 280 279 279 278 279 280 280 279 278 277
310 307 305 304 302 300 299 297 295 294 294 294 294 294 294 294 294 294 294 294 294 294 294 293 293 293 292 292 292 291 291 291 292 291 290 289 289 288 288 287 287 287 286 286 286 286 286 286 286 286 285 285 284 284 284 283 283 283 283 283 282 282 282 282 282 282 282 282 282 281 280 280 280 280 280 280 279 279 277 276 277 278 278 278 277
310 307 305 304 302 300 299 297 296 294 294 294 294 294 294 293 293 293 293 293 293 293 293 292 292 292 292 292 291 291 291 292 292 291 290 289 288 288 288 287 287 287 286 286 286 286 286 286 286 286 285 285 284 284 284 283 283 283 283 282 282 282 282 282 282 282 282 281 281 281 280 280 279 279 279 279 278 278 277 276 276 276 276 277 277
309 307 305 303 302 301 299 297 296 295 294 294 294 294 293 293 293 293 293 293 293 293 292 292 292 292 292 291 291 291 291 292 292 291 290 289 288 288 288 287 287 287 286 286 286 286 286 286 285 285 285 284 284 284 284 284 283 283 283 282 282 282 282 282 282 282 281 281 281 280 280 279 278 278 278 278 277 276 276 275 275 275 275 276 277
309 307 305 303 302 300 299 297 296 295 294 294 293 293 293 293 293 293 292 292 292 292 291 291 291 291 291 291 291 291 292 292 291 290 289 289 288 288 287 287 287 287 286 286 286 286 286 285 285 285 284 284 284 284 284 283 283 283 282 282 282 282 282 282 281 281 281 281 280 279 278 278 278 277 277 277 277 276 276 275 275 275 275 275 276
309 307 305 303 302 300 299 298 296 295 294 294 293 293 293 292 292 292 292 292 292 291 291 291 291 291 290 290 291 291 292 292 291 290 289 289 288 288 287 287 287 287 286 286 286 286 286 285 285 285 285 285 285 284 284 284 283 283 282 282 281 281 281 281 281 281 280 280 279 278 278 278 277 277 276 276 276 276 276 275 275 275 275 274 274
308 306 305 303 302 301 299 298 296 296 295 294 293 293 292 292 292 292 292 291 291 291 290 290 291 290 290 291 292 292 291 292 291 290 289 288 288 288 288 287 287 287 287 287 287 287 287 287 287 287 286 286 285 285 284 284 283 283 282 282 281 281 281 281 280 280 280 280 279 278 278 277 277 276 276 276 276 276 275 275 275 274 274 274 274
306 305 304 303 302 301 300 298 297 296 295 294 293 293 292 292 292 292 291 291 291 291 290 290 290 290 290 291 292 292 291 291 291 290 289 288 288 288 288 287 287 287 287 287 287 287 287 287 287 287 287 286 286 285 284 284 283 283 282 282 281 281 281 280 280 280 280 279 279 278 277 276 276 276 276 276 275 275 275 275 275 274 274 274 274
305 304 304 303 302 301 300 298 297 296 295 294 293 293 292 292 292 291 291 291 290 290 290 290 290 290 291 292 292 291 291 291 290 289 289 288 288 288 288 288 288 288 288 288 287 287 287 287 287 287 287 286 286 285 284 283 283 283 282 282 281 281 280 280 280 281 280 279 279 278 277 276 276 276 276 275 274 274 274 274 274 274 274 274 274
303 303 302 302 301 301 300 299 297 296 295 294 294 293 292 292 292 291 291 290 290 290 290 290 290 290 291 293 292 291 291 291 290 289 288 288 288 288 288 288 288 288 288 288 288 287 287 287 287 287 287 286 286 285 284 283 283 283 282 282 281 281 280 280 280 280 280 278 278 277 276 276 275 275 275 275 274 274 274 274 274 273 273 274 274
301 301 301 300 300 299 299 298 297 296 295 295 294 293 292 292 291 291 290 290 290 290 289 290 289 290 292 293 291 291 291 290 289 289 288 288 288 288 288 288 288 288 288 288 288 287 287 287 287 287 287 287 286 285 284 284 283 283 282 282 281 281 280 280 280 280 279 278 278 277 276 275 275 275 275 275 274 274 274 274 274 273 273 274 274
302 301 300 299 299 298 298 297 297 296 295 295 294 293 292 291 291 290 290 290 290 290 290 290 290 291 293 293 291 290 290 289 289 288 288 288 288 288 288 288 288 288 288 287 288 287 287 287 287 287 287 287 286 285 284 284 283 283 282 281 281 281 280 280 280 279 279 278 278 277 276 276 275 275 275 274 274 273 273 273 273 273 273 273 273
303 302 301 300 299 298 297 296 296 295 294 294 293 292 292 291 290 290 290 290 290 290 290 290 290 292 293 293 290 290 290 288 288 288 288 288 288 287 288 288 288 288 288 288 288 287 287 287 287 287 287 286 286 286 285 284 283 283 282 281 280 280 280 279 279 279 279 279 278 277 276 275 275 274 274 274 274 273 273 273 273 273 273 273 273
303 302 301 300 298 297 296 296 295 294 294 293 293 292 291 291 290 290 290 289 289 290 290 290 290 292 293 292 290 289 289 288 288 288 287 287 287 287 288 288 288 288 288 287 287 287 287 287 287 286 286 286 286 285 285 284 283 283 281 281 281 281 280 278 278 278 279 278 278 277 276 275 274 274 274 274 273 273 272 272 273 273 273 273 272
301 300 299 298 297 296 296 295 294 294 293 293 292 291 291 290 290 290 289 289 289 289 290 290 290 291 292 290 289 289 289 288 288 288 287 287 287 287 287 287 288 288 287 287 287 287 287 287 286 286 286 286 285 285 285 284 283 283 282 281 281 280 278 278 278 279 278 277 277 276 275 275 274 274 274 274 273 272 272 272 273 273 273 272 272
299 298 297 297 296 296 295 295 294 293 293 292 292 291 291 290 290 289 289 289 289 289 289 289 289 290 290 290 289 289 288 288 288 288 287 287 287 287 287 287 287 287 287 287 287 287 287 286 286 286 285 285 285 285 285 284 283 283 282 281 280 278 277 278 278 278 277 276 276 276 275 275 274 274 273 273 273 272 272 272 273 273 273 272 272
297 297 297 296 296 295 295 294 294 293 293 292 292 291 291 290 290 289 289 289 288 288 288 288 289 289 289 289 289 288 288 288 288 288 288 287 287 287 287 287 287 287 287 287 287 287 286 286 286 285 285 285 284 284 284 284 283 283 281 280 278 278 278 278 278 277 276 276 276 276 275 274 274 273 273 273 272 272 272 272 273 273 273 273 272
297 297 296 296 295 295 295 294 294 293 293 292 291 291 291 290 290 289 289 289 288 288 288 288 288 288 288 288 288 288 288 288 288 288 288 287 287 287 287 287 286 286 287 287 286 286 286 286 285 285 285 284 284 283 283 283 283 282 281 279 278 278 278 278 277 276 276 276 275 275 275 274 273 273 273 273 272 272 272 272 272 272 272 272 272
297 297 297 296 296 295 295 294 294 293 292 292 291 291 291 290 290 290 289 289 289 288 288 288 288 288 288 288 288 288 288 288 288 288 288 288 287 287 287 287 286 286 286 286 287 286 286 285 285 285 284 284 284 283 283 283 282 282 280 278 278 278 278 276 275 275 275 275 275 275 274 274 273 273 273 272 272 272 272 272 272 272 272 272 272
298 297 297 297 296 296 295 295 294 293 293 292 292 291 291 290 290 290 289 289 289 289 288 288 288 288 288 288 288 288 288 287 287 287 287 287 287 287 287 287 286 286 286 286 286 286 285 285 285 284 284 284 283 283 283 283 282 281 280 279 278 278 277 276 275 274 274 274 274 274 274 273 273 272 272 272 272 271 271 272 272 272 272 272 272
297 297 297 296 296 295 295 294 294 293 293 293 292 292 292 291 291 290 290 290 290 290 290 290 290 290 290 290 290 289 289 288 288 287 287 287 286 286 286 286 286 286 285 285 285 285 285 285 284 284 283 283 282 282 282 282 281 280 279 279 278 277 276 275 274 274 273 274 274 274 273 273 273 272 272 271 271 271 271 271 271 271 272 271 272
295 294 294 293 293 293 292 292 292 291 291 291 291 291 291 291 291 291 291 291 291 291 291 291 291 290 290 290 290 290 289 289 289 288 288 287 286 285 285 285 285 285 284 284 284 284 284 283 283 283 282 281 281 281 280 280 279 279 278 277 276 276 275 274 274 273 273 273 273 273 273 273 272 272 271 271 271 271 271 271 271 271 271 271 271
292 292 292 291 291 291 291 291 291 290 290 290 290 290 290 290 290 290 290 290 290 290 290 290 290 290 290 290 289 289 290 290 289 288 287 287 286 286 285 285 284 284 284 283 283 283 282 282 282 281 281 280 280 280 279 279 279 279 278 277 276 275 275 274 274 274 273 273 273 272 272 272 272 271 271 271 271 270 270 270 270 271 271 271 271
291 291 291 291 291 291 291 291 290 290 290 290 290 290 290 290 290 290 290 290 290 290 290 290 290 289 289 289 289 289 289 289 288 288 287 287 286 286 285 285 284 284 283 282 282 282 281 281 281 281 280 280 280 280 280 280 279 278 277 276 276 275 274 274 274 273 273 272 272 272 272 272 271 271 270 270 270 270 270 270 270 270 270 270 271
291 291 291 291 291 291 291 291 290 290 290 290 290 290 290 290 290 290 290 290 290 290 289 289 289 289 289 289 288 288 288 287 287 287 287 286 286 285 285 284 283 283 282 281 281 281 281 281 281 281 280 280 280 280 280 279 278 277 277 276 276 275 274 274 273 273 272 272 271 271 271 271 271 270 270 269 270 270 270 270 270 270 270 270 270
291 291 291 291 291 291 290 290 290 290 290 290 290 290 290 290 290 290 290 290 290 289 289 289 288 288 288 288 288 288 287 287 286 286 286 285 285 285 284 283 283 282 281 280 280 281 280 280 280 280 280 280 280 280 279 278 277 277 276 275 275 274 274 273 272 271 271 271 270 270 270 270 270 270 269 269 269 269 269 270 270 270 270 270 270
291 291 291 291 291 291 290 290 290 290 290 290 290 290 290 290 290 290 289 289 289 289 289 289 289 288 288 288 288 288 287 287 286 286 285 285 285 284 283 282 281 280 279 279 280 280 279 279 279 279 279 279 279 279 278 277 276 276 275 275 274 274 273 272 271 271 270 270 270 270 270 270 270 269 268 268 268 269 269 269 269 269 269 269 270
291 291 291 291 290 290 290 290 290 290 290 290 290 290 290 290 290 289 289 289 289 289 289 289 289 288 288 288 287 287 287 287 287 286 286 285 284 283 282 281 280 279 278 278 278 278 278 278 279 279 279 279 278 277 277 276 275 275 274 274 273 273 272 271 271 270 270 270 269 269 269 269 269 268 268 268 268 268 269 269 269 269 269 269 269
291 291 291 291 290 290 290 290 290 290 290 289 289 289 289 289 289 289 289 289 289 289 289 289 288 288 288 288 287 287 286 286 285 285 285 285 283 282 281 280 279 278 277 277 277 277 277 277 277 277 277 277 276 276 275 275 275 274 274 273 273 272 271 270 270 270 269 269 269 269 269 269 268 268 268 268 268 268 268 269 269 269 269 268 268
291 291 291 291 291 290 290 290 290 289 289 289 289 289 290 290 289 289 289 289 289 289 289 288 288 287 287 287 287 286 286 285 284 283 283 282 281 279 278 279 279 278 277 277 277 277 277 277 276 276 276 276 276 275 275 275 274 274 273 273 272 271 270 270 269 269 268 268 268 268 268 268 268 267 267 267 268 268 268 268 268 268 268 268 268
291 291 291 291 291 290 290 290 290 290 290 290 290 290 290 290 289 289 289 289 289 289 288 288 287 287 286 286 286 285 284 284 283 281 280 280 279 278 277 276 277 277 277 276 276 276 276 276 276 276 276 276 275 275 275 274 274 273 273 272 271 270 269 269 268 268 268 268 268 268 268 267 267 267 267 267 268 268 268 268 268 268 268 267 267
291 291 291 291 290 290 290 290 290 290 290 290 290 290 290 290 289 289 289 289 289 288 288 287 287 286 286 285 284 284 283 282 281 280 280 279 278 277 276 275 275 276 276 276 276 276 276 276 276 275 275 275 275 274 274 274 273 272 272 271 270 269 269 268 268 268 268 268 268 268 267 267 267 267 267 267 267 268 268 268 268 268 267 267 266
291 291 291 291 290 290 290 290 290 290 290 290 290 290 290 289 289 289 289 289 288 288 288 287 286 286 285 284 283 283 282 281 281 280 279 278 277 276 275 275 275 275 275 275 275 275 275 275 275 275 274 274 274 273 273 272 271 271 270 270 269 269 268 268 268 268 267 267 267 267 267 267 267 267 267 267 267 267 267 267 267 267 267 266 266
291 291 290 290 290 290 290 290 290 290 289 289 289 289 289 289 289 288 288 288 288 287 287 286 286 285 284 284 283 282 281 281 280 279 278 278 277 276 275 275 275 275 275 275 275 275 275 275 274 274 273 273 272 272 271 271 270 270 269 269 269 268 268 268 268 268 267 267 267 267 267 267 267 267 267 267 267 267 267 267 267 266 266 265 265
290 290 290 290 289 289 289 289 289 289 288 288 288 288 288 288 288 288 287 287 287 286 286 285 285 284 284 283 282 282 281 280 280 279 278 278 277 276 276 276 275 275 275 275 275 275 274 274 273 273 272 271 271 271 270 270 269 269 268 268 268 268 268 268 268 267 267 267 267 267 267 267 267 267 267 267 267 267 267 266 266 265 265 265 265
289 289 288 288 288 288 288 288 288 287 287 287 287 287 287 287 287 286 286 285 285 284 284 283 283 282 282 282 281 281 281 280 279 278 277 277 276 276 276 276 275 275 275 274 274 273 273 272 272 271 271 271 270 270 270 269 269 268 268 268 268 268 268 268 268 267 267 267 267 267 266 266 266 267 267 267 267 266 266 266 265 265 265 265 265
288 287 287 287 287 287 287 287 287 286 287 287 286 286 286 285 285 284 284 283 283 282 282 281 281 280 280 280 280 280 279 279 278 277 276 276 275 275 275 274 274 274 273 273 272 272 272 271 271 271 270 270 269 269 269 269 268 268 269 269 269 269 268 268 267 267 267 267 267 266 266 266 266 266 266 266 266 266 265 265 265 265 265 265 265
287 287 286 286 286 286 286 286 286 286 286 285 285 284 284 283 283 282 282 281 281 280 280 280 279 279 279 278 278 278 278 277 277 276 276 275 274 274 273 273 273 272 272 272 271 271 271 271 270 270 269 269 269 268 268 268 269 269 269 269 269 269 268 268 267 267 267 266 266 266 266 266 266 266 266 266 265 265 265 265 265 265 265 265 265
286 286 286 286 286 285 285 285 285 285 284 284 283 283 282 281 281 281 280 280 279 279 278 278 278 277 277 277 277 276 276 276 275 275 274 274 273 272 272 272 272 272 271 271 271 270 270 270 270 269 269 269 269 269 269 268 268 268 268 268 268 268 268 267 267 267 266 266 266 266 266 266 266 265 265 265 265 265 265 265 265 265 265 265 265
285 285 285 285 285 285 284 284 284 283 283 282 282 281 281 280 280 279 279 279 278 278 277 277 277 276 276 275 275 275 274 274 274 273 273 272 272 272 271 271 271 271 271 270 270 270 270 269 269 269 269 269 269 269 268 268 268 268 268 268 268 268 267 267 266 266 266 266 266 265 265 265 265 265 265 265 265 265 265 265 265 265 265 265 265
285 285 284 284 284 283 283 283 282 282 281 281 280 280 279 279 278 278 278 277 277 277 276 276 275 275 274 274 273 273 273 273 272 272 272 271 271 271 271 271 271 271 270 270 270 270 270 270 270 270 269 269 269 269 268 268 268 268 268 268 267 267 267 266 266 266 266 265 265 265 265 265 265 265 265 265 265 265 265 265 265 265 265 265 265
283 283 283 283 282 282 282 281 281 280 280 280 279 278 278 277 277 276 276 276 276 275 275 274 274 274 273 273 273 272 272 272 271 271 271 271 270 270 270 270 270 270 270 270 270 270 269 269 269 269 269 269 268 268 268 268 268 268 267 267 267 266 266 266 266 266 266 266 266 266 266 266 266 266 266 266 265 265 265 265 265 265 265 265 265
282 282 282 281 281 281 280 280 279 279 278 278 277 277 276 276 275 275 275 274 274 274 274 273 273 273 272 272 272 271 271 271 271 270 270 270 270 270 270 270 270 270 270 270 269 269 269 269 269 269 268 268 268 268 267 267 267 267 267 267 267 267 267 267 267 266 266 266 266 266 266 266 266 266 266 266 265 265 265 265 265 265 265 265 265
281 281 280 280 280 279 279 278 278 277 277 276 276 275 275 274 274 274 274 273 273 273 272 272 272 272 271 271 271 270 270 270 270 270 270 269 269 269 269 269 270 270 269 269 269 269 268 268 268 268 267 267 267 268 268 268 268 268 268 267 267 267 267 267 267 266 266 266 266 266 266 266 266 266 266 266 265 265 265 265 265 265 265 265 265
280 279 279 279 278 278 277 277 276 276 275 275 274 274 274 273 273 273 273 272 272 272 271 271 271 271 270 270 270 269 269 269 269 269 269 269 269 269 269 269 269 269 269 269 268 268 267 267 267 267 267 268 268 268 268 268 268 268 268 267 267 267 267 267 267 266 266 266 266 266 266 266 266 266 266 265 265 265 265 265 265 265 265 265 265
Wind_Speed
38 39 41 41 41 41 40 39 38 36 35 33 32 30 29 27 25 24 22 20 18 17 15 14 13 13 12 11 10 9 8 7 7 6 6 5 6 6 7 7 8 8 8 9 9 10 10 9 9 9 9 9 10 10 11 11 12 13 14 15 15 17 19 21 25 29 28 28 29 30 31 32 33 33 34 36 37 39 40 40 41 41 42 42 42
39 41 42 43 42 42 41 40 39 38 36 35 34 32 30 28 27 25 23 21 20 18 16 15 15 14 13 12 10 9 7 6 6 6 6 6 7 8 8 9 9 9 9 10 11 11 11 10 10 10 11 11 11 11 12 13 13 14 15 16 16 17 19 21 24 28 30 30 30 31 31 32 33 33 35 37 38 39 41 41 42 42 43 43 44
40 42 43 44 43 43 42 41 41 40 38 37 36 34 32 30 28 27 25 23 21 20 18 17 16 15 14 13 11 9 8 6 6 6 6 7 8 9 10 10 10 10 11 12 12 12 12 12 12 12 12 12 12 13 13 14 15 16 16 17 18 18 19 22 24 28 31 32 32 32 33 33 34 34 35 36 38 40 41 42 43 44 45 44 45
41 43 44 44 44 44 44 43 42 41 41 39 37 36 33 31 30 28 26 25 23 21 20 18 17 16 15 14 12 10 8 7 6 6 7 8 9 10 10 10 11 11 12 13 13 13 13 13 13 13 13 14 14 14 15 16 16 17 17 18 19 20 20 22 24 27 31 33 33 33 34 34 35 35 35 36 37 39 40 42 44 45 46 45 45
42 44 45 45 45 46 46 45 45 44 42 41 39 37 35 33 32 30 28 26 24 23 22 20 19 18 16 15 14 12 9 7 6 7 8 10 10 11 11 11 12 12 13 14 14 14 14 14 14 14 14 15 15 16 16 17 18 18 19 20 20 21 22 23 25 27 30 33 34 34 35 35 35 35 35 36 38 39 40 42 43 45 46 46 45
44 45 46 46 46 47 48 47 47 45 43 41 40 38 36 35 33 32 30 28 26 24 23 22 20 19 18 17 15 13 10 8 8 8 10 11 12 12 12 11 12 13 14 15 15 15 15 15 15 14 15 15 17 17 18 18 19 19 20 21 22 22 23 24 26 28 30 32 34 35 36 36 35 35 35 36 38 39 41 42 43 44 44 45 46
46 46 47 47 47 48 49 48 47 45 44 42 41 39 37 36 35 33 31 29 27 26 25 23 21 20 20 19 17 14 12 10 10 11 12 12 12 12 11 11 12 14 14 15 16 16 15 15 15 15 16 16 17 18 19 20 20 21 21 22 23 23 24 25 26 28 30 32 34 36 36 35 35 35 35 35 37 37 37 41 44 45 45 45 45
47 47 48 48 47 48 48 47 46 45 44 43 42 40 39 38 36 34 33 31 29 28 26 24 23 23 22 20 18 16 14 13 13 14 14 13 13 12 11 11 12 13 14 15 16 16 15 15 15 15 16 17 18 19 20 20 21 22 22 23 24 24 25 26 27 28 30 32 34 35 35 35 34 35 35 35 37 37 37 39 42 45 46 46 45
48 48 49 49 47 47 47 47 46 46 45 44 43 42 40 39 37 35 34 33 31 29 27 26 25 25 23 22 20 17 16 15 16 16 15 14 13 12 11 11 12 12 14 15 15 15 15 15 15 15 16 17 18 19 20 21 22 23 23 24 25 25 26 26 27 29 30 32 34 34 34 34 34 34 35 35 36 38 38 38 39 42 44 46 46
49 49 49 48 47 46 47 47 47 47 47 46 45 43 42 40 39 37 36 34 33 31 29 29 27 26 24 23 21 19 18 18 18 18 16 15 14 13 12 11 11 12 12 13 13 14 14 14 14 15 16 17 18 19 20 21 22 23 24 25 26 26 27 27 28 28 30 32 33 33 33 33 32 32 33 34 34 36 37 37 39 42 44 46 47
49 49 48 47 46 46 47 48 47 47 48 47 46 45 43 41 40 38 37 36 35 33 31 30 29 27 26 24 21 21 21 20 20 19 18 17 16 14 13 12 11 11 11 11 11 12 12 13 13 14 14 16 17 18 19 20 22 24 25 26 27 27 27 28 28 29 30 32 32 31 31 32 31 30 31 33 33 34 35 35 38 41 42 44 47
49 49 48 47 46 46 47 48 48 48 48 48 47 46 44 43 41 40 39 38 36 35 33 32 30 29 27 25 23 23 23 22 21 21 20 19 17 15 14 13 12 11 11 10 10 10 10 11 11 12 13 15 16 18 19 20 22 24 25 26 27 27 28 28 28 29 29 29 30 29 29 29 31 30 30 31 32 33 34 35 36 39 40 42 44
49 49 48 47 47 46 47 49 49 49 48 48 47 46 45 44 43 42 41 40 38 36 34 33 31 30 28 25 25 26 25 24 23 23 22 21 19 17 16 15 14 12 11 11 10 10 11 11 12 13 14 16 17 19 20 21 22 24 26 27 27 27 28 28 27 28 28 27 29 29 27 27 29 29 28 29 31 32 34 35 35 37 39 40 41
49 49 48 47 47 47 48 49 49 48 48 47 47 47 47 46 44 43 42 41 39 38 36 34 33 31 29 27 27 28 27 26 25 26 25 23 21 20 18 17 16 15 13 13 13 13 13 13 14 15 16 17 19 20 21 22 23 25 26 28 28 28 29 29 29 28 27 27 28 28 25 25 27 28 28 27 29 31 33 34 35 36 38 39 39
47 47 48 47 48 49 49 49 49 48 48 48 48 48 48 47 46 45 44 42 41 39 37 35 33 32 31 30 30 30 29 27 27 28 27 25 23 22 21 20 19 17 16 15 15 15 16 16 17 17 18 19 20 21 22 23 24 26 27 28 29 29 30 30 30 29 28 27 27 26 25 24 25 27 27 27 27 30 31 32 33 35 38 39 39
45 46 47 48 48 49 48 48 49 49 48 48 49 49 49 48 48 47 45 43 41 39 37 36 35 35 34 32 32 32 31 30 30 30 29 28 26 26 24 23 21 20 19 18 19 19 19 19 20 20 21 21 21 22 24 24 25 27 28 29 29 30 31 31 30 28 27 26 26 25 24 23 24 25 25 26 27 29 31 31 31 34 37 38 39
42 44 45 46 47 47 47 48 49 49 49 50 50 50 49 49 49 47 46 44 42 40 38 37 38 39 37 34 33 34 33 32 32 32 31 30 29 29 27 26 25 23 22 22 22 22 21 21 21 23 23 22 22 23 24 25 26 27 28 29 29 31 33 32 30 28 26 25 26 25 23 21 23 23 23 24 26 27 29 30 30 32 35 37 39
37 40 42 43 44 44 46 47 48 49 50 50 49 49 49 49 49 48 46 44 42 40 38 39 41 42 39 35 34 36 36 34 33 33 34 33 31 31 30 30 29 27 25 25 26 26 24 23 23 25 25 24 23 24 25 26 27 28 28 29 31 33 33 31 30 29 28 27 27 25 22 21 22 22 22 23 24 26 28 29 29 31 34 35 37
31 34 36 37 39 41 43 45 46 47 48 48 47 47 47 48 48 47 46 43 41 40 40 42 45 44 39 36 37 39 38 36 34 34 35 34 33 33 33 33 33 32 30 29 30 29 27 26 26 27 27 26 26 26 26 27 28 28 28 30 32 34 33 31 30 31 30 28 27 25 23 22 21 22 22 23 24 25 26 26 27 29 32 33 34
26 28 30 32 33 35 37 39 40 41 42 43 43 44 45 46 46 46 45 44 43 43 44 46 47 44 39 38 40 41 40 38 36 36 36 36 36 35 36 37 38 36 34 33 33 32 31 30 29 29 29 29 28 28 27 27 28 28 29 31 32 33 32 30 31 31 30 29 28 27 25 23 22 22 23 23 23 24 25 25 26 27 30 32 32
21 23 24 25 27 28 29 31 32 33 35 37 38 40 42 43 44 45 45 46 46 47 47 48 47 43 40 40 43 43 42 41 38 38 38 38 38 38 39 40 40 39 38 37 37 36 34 34 32 30 30 30 30 30 29 28 28 29 30 31 32 32 31 31 31 31 30 29 29 28 26 25 24 23 23 23 23 23 24 24 24 25 27 30 31
16 17 18 18 19 21 22 23 25 26 28 31 33 35 37 39 41 43 45 47 48 48 48 48 47 45 42 43 45 45 44 43 42 41 40 40 40 41 42 42 42 41 41 42 41 40 38 36 34 32 31 31 32 32 31 30 30 30 30 31 31 30 30 32 32 30 30 30 30 29 27 25 25 25 24 23 23 23 24 24 24 25 26 27 29
11 12 13 14 14 15 16 17 19 21 23 25 27 29 31 33 36 38 40 43 46 47 48 48 48 47 46 45 46 46 46 45 45 44 43 42 42 43 44 44 44 44 45 46 45 44 41 38 37 35 34 34 33 33 32 31 32 32 31 30 29 29 31 33 32 31 31 31 31 30 28 26 26 26 24 24 24 24 24 24 24 25 26 26 27
9 10 10 11 11 12 12 13 15 17 19 21 23 25 26 28 30 32 35 37 40 43 44 46 46 46 46 46 46 47 48 48 48 47 46 45 45 46 46 47 47 47 49 49 49 47 44 41 40 39 38 37 35 34 33 33 33 32 29 26 27 31 34 34 33 33 33 33 31 31 30 27 27 27 25 25 25 25 25 25 25 25 26 27 27
10 10 10 10 10 10 10 11 13 14 15 17 19 21 22 24 26 28 29 32 34 36 37 39 41 41 42 43 44 45 47 48 49 49 49 49 48 48 48 49 49 50 51 52 51 49 47 45 43 43 41 40 37 36 36 35 33 31 27 26 30 34 35 34 34 36 36 34 33 33 31 29 27 27 26 27 27 26 26 26 25 25 26 28 28
11 11 11 10 10 11 11 11 12 13 14 15 16 18 19 21 22 24 26 27 29 30 32 34 35 36 38 39 39 40 42 44 46 47 49 51 51 51 51 51 52 52 52 53 52 51 50 49 48 46 44 41 39 38 38 37 34 30 28 29 32 34 33 34 36 37 37 36 35 35 33 29 27 27 27 28 28 27 27 28 28 27 27 29 30
10 10 10 10 10 10 10 10 10 11 12 13 14 15 17 18 19 21 22 23 25 26 27 29 30 32 33 34 34 36 38 40 42 43 44 46 48 50 51 52 52 53 53 53 52 51 51 51 50 48 45 42 40 38 38 38 36 32 31 30 31 31 32 34 37 38 38 37 37 36 34 30 28 27 27 28 28 27 27 29 30 29 29 29 31
8 8 8 8 8 8 8 8 8 9 9 10 11 12 13 14 16 17 17 18 20 22 24 26 27 28 30 31 32 34 36 37 38 39 39 40 41 43 45 46 47 48 50 50 50 49 49 48 48 46 44 42 39 37 36 37 36 35 33 32 32 32 33 35 37 38 37 36 36 36 33 30 29 28 28 29 29 27 27 29 30 30 29 30 30
8 8 8 7 7 7 7 8 8 9 9 10 10 11 12 13 15 15 16 18 20 22 23 25 26 28 30 31 32 34 35 36 36 36 37 38 38 39 39 40 41 41 42 42 43 44 45 45 45 44 42 41 39 38 37 37 37 37 36 35 34 34 34 35 36 36 34 33 33 34 32 31 30 29 29 30 29 27 27 28 29 30 29 29 30
8 8 8 8 8 9 9 9 10 10 11 12 12 13 14 16 17 18 18 20 22 23 25 27 28 29 31 32 33 35 36 36 36 37 38 38 38 38 38 38 37 37 36 35 36 39 41 43 44 43 42 41 40 39 38 38 38 37 36 34 32 32 32 33 34 33 32 31 32 32 32 32 31 30 30 31 30 28 27 27 28 29 29 29 30
10 10 10 10 10 11 11 11 12 12 13 14 15 16 17 18 19 20 20 21 23 25 27 28 29 30 32 33 33 35 35 36 36 37 38 38 38 38 37 37 36 34 33 32 34 38 40 42 43 43 41 40 39 38 37 36 35 33 31 29 29 30 31 32 32 33 33 32 32 33 33 32 32 31 30 30 30 29 28 27 27 28 29 28 29
11 12 12 12 13 13 13 14 15 15 16 17 18 18 19 19 20 21 22 24 25 27 28 29 29 30 31 32 34 35 35 35 36 36 37 38 38 37 36 35 34 32 30 30 33 36 38 39 40 39 38 38 38 37 35 34 32 29 28 28 29 29 29 30 31 32 33 33 33 34 34 32 31 31 30 30 30 29 28 27 27 27 28 28 29
14 14 15 15 16 16 17 17 18 19 20 20 20 21 21 21 22 23 24 26 28 29 29 29 30 30 31 32 34 35 36 35 35 35 35 35 36 35 34 31 29 28 27 29 32 34 35 35 36 36 35 36 35 34 32 31 30 29 28 28 28 28 28 29 31 32 33 33 34 35 34 32 31 30 29 29 29 29 29 28 27 27 28 28 28
16 17 18 19 19 20 20 20 21 21 22 22 22 22 22 23 24 25 26 27 28 29 29 30 30 31 31 32 32 33 34 35 35 35 34 33 32 32 30 28 26 24 24 27 30 31 31 32 32 32 32 32 31 31 30 30 29 29 28 27 27 28 29 30 31 33 33 33 34 35 34 31 29 29 29 28 28 28 28 28 27 27 27 28 29
15 17 18 19 20 21 21 21 22 22 22 22 22 23 23 24 25 26 27 27 28 28 28 29 29 30 31 31 31 31 31 31 32 33 34 33 30 27 25 25 25 24 23 25 27 28 29 29 29 30 30 30 30 30 30 30 29 29 29 30 30 31 31 31 32 33 34 35 36 36 33 30 28 28 28 28 28 28 28 28 27 27 27 28 29
14 14 15 16 17 18 18 19 20 20 21 21 22 23 23 24 24 25 26 27 27 27 27 27 27 28 29 29 29 29 29 29 29 29 31 32 29 25 23 24 25 24 23 23 24 26 27 29 29 30 31 31 31 32 32 32 32 33 34 35 35 34 34 34 34 35 36 37 37 34 30 28 26 26 27 28 28 28 27 27 27 27 27 27 28
13 14 14 15 15 16 16 17 18 18 19 20 21 22 22 23 24 24 25 26 26 27 27 27 26 27 27 27 27 28 29 29 28 27 28 29 29 27 24 24 24 23 24 24 24 26 28 29 31 32 33 34 35 35 36 36 37 37 38 38 38 36 35 35 35 36 36 34 32 29 27 26 25 25 26 27 28 27 27 27 27 27 27 27 27
14 14 14 15 15 16 16 17 18 19 20 20 21 22 23 24 24 25 26 26 27 27 28 28 27 27 27 26 26 27 27 28 27 26 26 27 27 26 25 25 25 25 26 27 28 29 30 31 32 34 35 36 37 37 38 38 39 38 37 36 35 34 34 34 33 32 31 28 26 25 25 24 24 24 25 27 27 27 27 27 27 27 27 27 26
14 15 15 16 16 17 18 19 20 20 21 22 23 23 24 25 25 26 27 28 28 29 29 29 28 28 27 26 26 25 25 26 26 26 25 24 25 25 25 26 28 29 30 31 32 32 33 34 35 35 35 36 36 36 36 36 36 34 33 32 32 31 30 29 28 27 26 24 23 23 23 23 23 24 25 26 27 26 26 27 27 26 26 26 25
15 16 16 17 17 18 19 19 20 21 22 22 23 24 25 25 26 27 28 28 29 30 30 29 29 28 28 27 26 25 24 25 25 25 24 24 24 24 25 27 29 30 32 32 33 33 33 33 33 33 34 34 33 33 32 32 31 30 29 28 27 26 25 24 23 23 23 22 22 22 22 22 23 24 25 26 26 26 26 27 26 25 25 25 24
16 16 17 17 17 18 18 19 20 21 21 22 23 24 25 26 26 27 28 28 29 29 29 29 28 28 27 27 26 25 25 24 23 23 23 23 23 24 25 26 28 29 30 31 31 31 31 31 31 31 31 30 30 29 28 27 26 25 24 23 23 22 21 20 20 21 21 21 21 21 22 22 23 25 25 25 25 26 26 26 25 24 24 23 22
16 16 16 16 16 17 18 18 19 20 20 21 22 23 24 25 25 26 26 26 26 26 26 26 26 25 25 25 25 25 24 23 21 21 21 22 22 23 24 25 27 28 29 30 30 29 29 28 28 27 27 25 25 24 23 22 22 21 20 20 20 20 20 19 19 19 20 20 21 21 22 23 24 24 25 25 25 25 25 24 23 23 22 22 21
15 15 15 16 16 16 17 17 18 19 20 20 21 22 22 22 23 23 23 23 23 23 23 22 22 22 22 22 23 23 23 22 21 21 21 21 22 22 23 25 26 27 28 27 27 26 25 24 23 22 21 20 19 19 19 19 19 19 19 19 19 19 19 19 18 19 19 20 21 22 22 23 24 24 24 24 24 24 23 23 22 22 21 20 19
14 15 15 15 16 16 16 17 17 18 19 19 20 20 20 20 20 20 20 20 20 20 20 20 20 20 21 21 22 22 22 23 22 22 22 22 22 22 23 24 25 25 25 24 23 22 21 19 18 17 16 16 16 17 17 17 18 18 18 18 19 19 19 18 18 18 19 21 21 21 22 23 23 23 23 22 22 22 22 21 21 20 20 19 18
14 14 15 15 15 16 16 17 17 18 18 19 19 19 19 19 19 19 19 19 19 19 19 20 20 20 21 22 22 22 22 23 23 23 23 23 22 21 21 22 22 22 21 20 20 19 18 16 16 15 15 15 16 17 17 17 18 18 19 19 19 19 19 18 18 19 20 21 21 21 21 22 22 21 21 20 20 21 20 19 19 19 19 18 18
14 14 15 15 15 16 16 17 17 18 18 18 18 19 19 19 19 19 20 20 20 20 20 21 21 21 21 22 22 23 23 23 23 23 23 22 21 19 19 19 19 18 18 18 18 17 16 16 15 15 15 15 16 16 17 17 18 19 19 19 20 19 19 18 19 20 20 20 20 20 20 20 20 19 19 19 19 19 19 19 18 18 18 18 18
14 14 14 15 15 16 16 16 17 17 17 18 18 18 19 19 19 19 20 20 20 21 21 21 21 22 22 22 23 23 23 22 22 21 20 20 19 18 17 17 16 16 17 17 17 17 16 16 16 15 15 15 15 16 17 18 18 19 19 20 20 19 19 19 19 19 19 19 19 19 19 19 18 18 18 19 19 19 19 19 18 18 18 18 18
13 14 14 14 15 15 15 16 16 16 17 17 18 18 19 19 19 19 20 20 21 21 22 22 22 23 23 22 22 22 21 20 19 18 18 18 17 17 17 16 16 16 16 16 16 16 16 15 15 15 16 16 16 17 17 18 19 19 19 19 19 18 18 18 18 18 18 18 18 18 18 19 18 18 18 19 19 19 19 18 18 18 18 18 17
13 13 14 14 14 15 15 15 15 16 16 17 17 18 18 19 19 20 20 21 21 21 21 21 22 22 22 21 21 20 19 18 17 17 16 16 16 17 17 16 16 16 16 16 16 17 17 16 16 17 17 17 17 17 17 17 18 18 18 18 17 17 17 18 18 18 18 18 19 19 19 19 19 19 19 19 19 19 19 18 18 18 18 18 17
13 13 13 14 14 14 15 15 16 16 16 17 17 17 18 18 19 19 20 20 20 20 20 20 20 20 20 19 18 18 18 17 16 16 16 16 16 17 17 17 17 17 17 17 17 18 18 18 18 18 18 17 17 16 16 17 18 18 18 18 18 18 18 18 19 19 19 19 19 20 20 20 20 20 19 19 19 18 18 18 18 18 18 17 17
13 13 13 14 14 15 15 16 16 16 17 17 17 17 17 18 18 18 18 18 18 18 18 19 18 18 18 17 17 17 17 16 16 16 16 16 17 17 17 18 18 18 18 18 18 19 19 19 18 17 17 17 17 17 17 18 18 19 19 19 19 19 19 19 19 19 19 20 20 20 20 20 20 19 18 18 17 17 17 17 17 17 18 17 17
Wind_Direction
212 209 203 199 199 202 205 206 205 205 205 205 206 208 208 206 202 201 201 201 202 202 201 199 201 207 211 211 208 203 201 199 201 207 214 224 230 238 246 249 254 259 263 266 266 265 266 269 275 280 284 288 291 294 297 300 303 306 308 311 313 314 316 316 314 315 319 322 324 326 327 326 327 330 331 331 332 332 330 330 329 329 331 331 331
210 208 205 201 201 204 206 207 206 206 206 206 207 209 209 207 205 204 204 204 205 205 204 204 205 209 211 211 208 205 204 205 208 215 225 233 237 243 247 249 253 259 263 264 264 264 265 267 272 277 280 283 286 289 293 295 298 301 304 306 308 310 312 313 313 313 316 319 322 323 324 325 326 329 331 330 330 330 329 329 330 331 332 333 333
211 208 207 205 203 205 207 209 208 208 208 208 209 210 210 209 207 207 207 207 206 205 205 207 208 210 211 212 212 210 209 210 217 227 236 242 245 245 247 253 257 259 260 261 262 264 266 267 270 274 277 281 285 288 290 293 296 298 301 303 305 306 308 310 311 312 314 316 320 322 323 324 326 328 330 329 328 328 328 329 331 332 333 335 335
213 210 210 209 208 207 208 210 210 210 210 210 210 211 211 210 209 209 209 209 209 206 205 207 208 210 213 215 217 216 214 215 226 241 249 250 249 248 251 256 259 260 260 261 262 263 265 268 269 273 277 281 285 288 289 292 295 297 300 301 302 304 305 307 309 310 312 314 318 320 321 323 325 326 327 326 326 327 329 331 332 332 334 337 337
215 213 212 212 212 211 210 211 212 212 212 212 212 213 212 211 211 210 210 210 210 208 208 209 209 211 216 220 221 218 216 220 235 252 257 254 251 252 255 257 258 262 263 263 264 264 265 268 271 274 279 283 286 288 290 292 294 296 298 299 299 301 303 306 308 309 311 313 316 319 320 322 323 324 326 327 326 327 330 332 333 333 334 336 336
218 216 215 215 216 215 213 212 213 214 214 213 214 214 213 213 212 212 212 212 211 212 213 212 211 213 218 221 221 219 219 225 239 254 256 252 251 251 253 255 259 262 264 265 265 265 267 270 273 277 280 282 285 287 290 291 293 295 295 296 297 299 302 304 306 308 310 312 315 317 319 320 320 322 326 329 329 329 330 331 332 333 333 334 335
221 219 217 217 218 218 215 214 214 215 216 215 216 216 215 215 214 214 214 214 215 216 216 215 214 216 220 222 223 222 224 231 243 252 252 249 248 249 250 255 261 263 265 266 265 266 269 272 276 279 281 283 285 286 289 290 292 293 294 295 295 297 301 303 305 308 309 311 314 315 316 317 319 323 327 329 330 331 332 330 330 331 332 333 333
223 221 220 219 220 220 218 216 216 217 218 217 218 218 217 216 216 216 216 217 218 219 218 217 217 218 221 222 222 225 228 236 246 251 250 247 247 248 251 256 261 265 268 268 267 268 271 274 277 281 283 285 286 287 290 291 292 293 293 293 294 296 299 302 304 307 309 310 312 313 314 316 321 325 327 329 329 330 331 329 328 329 331 331 331
225 224 222 221 221 221 220 219 218 219 219 219 220 220 219 218 218 218 219 220 220 220 218 218 219 221 223 222 223 227 232 240 249 250 246 246 247 248 252 257 263 269 271 270 269 270 273 276 279 283 284 286 288 290 292 293 293 293 292 291 293 295 298 301 304 306 307 308 310 312 315 319 323 325 326 329 329 327 327 327 326 327 328 328 329
227 225 225 223 223 222 221 220 220 220 221 221 222 221 220 220 220 220 221 222 222 221 219 218 220 222 224 225 226 230 236 244 250 247 244 245 245 246 251 256 263 269 271 271 271 272 275 277 280 284 287 289 291 293 294 294 293 293 291 291 292 294 297 300 302 304 305 306 309 313 316 319 322 323 325 327 325 323 324 325 324 325 327 326 328
228 227 227 226 225 225 223 222 222 222 223 223 223 223 223 222 223 223 223 224 223 222 221 220 221 224 225 225 229 235 242 248 249 245 244 245 244 244 249 254 260 266 267 268 270 272 274 278 281 285 289 292 293 293 293 293 292 291 290 290 292 294 296 299 301 303 304 306 309 312 315 316 318 320 322 323 321 321 321 322 322 323 326 326 326
229 229 228 228 228 227 226 225 225 225 225 225 225 225 225 225 225 225 226 226 225 224 222 222 224 225 224 226 234 241 245 249 249 245 244 244 242 243 246 251 256 259 260 263 266 270 273 277 282 287 289 290 291 292 292 290 289 288 287 288 289 291 294 296 298 300 301 303 306 310 312 314 315 318 319 319 318 319 319 320 321 322 323 324 324
230 229 229 229 229 230 229 228 227 227 227 227 227 227 227 227 228 228 228 227 226 226 225 225 227 226 226 233 243 246 248 250 249 246 244 242 242 243 245 249 253 253 255 261 263 265 271 275 278 283 285 286 288 289 288 287 286 285 286 286 287 288 290 291 293 295 296 299 304 308 311 312 313 314 315 315 316 316 317 318 320 320 321 322 322
230 231 231 231 232 232 232 231 230 230 230 230 229 229 229 230 230 230 230 229 228 228 227 228 229 227 231 244 251 249 249 251 250 246 243 241 242 244 244 246 249 250 253 258 261 263 267 271 274 277 279 281 284 285 285 284 283 283 284 285 285 286 287 288 290 292 294 298 303 308 310 311 309 309 312 314 313 313 314 315 318 320 320 320 320
234 234 234 234 234 234 234 233 233 233 232 232 232 231 231 231 231 231 231 230 230 230 230 232 231 230 240 253 254 249 249 251 249 246 242 241 243 244 244 245 248 252 254 257 260 262 264 267 271 273 275 278 281 282 282 282 282 283 284 284 285 285 285 287 289 292 295 299 303 308 310 310 307 307 311 312 310 309 310 312 316 318 316 316 318
237 237 237 237 236 236 236 236 235 235 234 234 234 233 233 233 233 233 232 231 231 231 232 233 232 236 249 258 254 249 250 250 248 246 242 242 244 245 246 247 249 251 253 257 261 262 263 266 271 274 276 278 280 280 281 281 281 282 284 284 284 284 284 286 289 292 296 298 300 304 307 305 301 301 304 305 305 305 306 310 316 315 313 315 318
241 241 241 240 240 240 240 239 238 238 237 236 236 235 235 234 234 233 232 231 232 232 234 235 236 243 256 259 253 251 251 248 247 246 244 244 245 247 250 253 253 252 253 257 262 264 264 266 270 275 278 279 279 279 279 281 282 282 284 285 284 284 285 288 290 293 294 293 296 300 302 298 295 295 297 299 300 302 305 311 316 313 312 315 319
244 245 245 245 244 244 244 244 243 242 241 240 239 238 237 236 235 235 234 234 235 235 238 239 242 251 260 259 253 252 251 247 245 246 247 246 247 249 253 256 258 257 256 259 264 266 266 267 269 274 278 279 278 278 278 280 281 282 284 285 284 285 287 289 292 293 293 292 295 299 299 297 296 297 298 299 299 302 306 310 313 312 312 316 320
245 247 249 249 249 249 249 248 247 246 245 245 243 242 240 239 238 237 237 237 238 239 242 244 248 257 263 259 252 251 249 245 244 246 248 248 249 251 255 258 260 262 261 263 266 268 268 269 270 273 277 278 278 278 279 279 280 282 282 282 283 285 287 289 291 290 290 293 296 299 301 301 300 299 298 297 298 302 305 307 309 311 312 315 320
249 251 254 253 253 253 252 252 252 251 251 250 249 248 246 243 241 240 239 239 240 242 244 247 253 261 264 257 250 249 248 246 245 246 248 249 251 252 256 260 263 265 266 266 268 269 270 272 272 273 276 278 277 278 279 279 280 280 280 279 282 285 286 288 288 287 289 294 297 300 302 303 301 297 296 296 298 301 303 304 307 310 312 314 318
250 252 253 253 254 255 254 255 256 256 256 255 254 252 250 248 246 244 242 241 241 243 245 248 254 261 262 256 250 248 249 249 248 247 248 250 252 254 257 261 265 267 268 269 269 270 271 273 273 273 274 276 277 278 279 279 279 279 279 280 282 284 284 285 285 286 291 296 297 298 300 301 300 297 296 297 298 299 300 301 305 309 311 313 316
243 246 248 250 252 254 255 257 258 258 258 257 256 256 255 253 251 248 246 244 244 245 247 250 254 259 261 256 251 249 250 251 251 250 249 251 253 255 258 262 265 266 268 269 270 271 271 273 274 274 273 273 275 276 278 278 278 278 279 280 280 280 279 280 282 286 291 294 294 294 297 299 298 295 294 295 296 296 296 298 302 306 308 311 314
230 235 239 242 247 250 253 255 256 257 258 258 259 260 259 257 255 253 251 249 249 249 250 252 255 259 260 258 254 253 253 253 254 253 252 252 254 257 259 262 264 266 268 270 271 272 272 272 273 274 273 273 273 275 276 276 276 276 277 277 276 274 274 277 281 285 288 291 292 292 295 296 295 293 293 293 292 292 293 295 299 302 305 309 311
213 219 225 232 237 242 246 249 252 254 256 257 259 259 259 258 258 257 255 254 254 254 255 256 258 260 261 260 258 258 258 258 257 257 256 255 255 257 259 261 263 265 268 270 271 272 273 273 273 273 273 273 273 274 274 275 274 274 275 272 268 269 273 279 283 284 287 290 291 292 293 293 292 292 292 292 291 291 291 292 296 301 303 305 308
206 210 215 221 225 230 236 241 245 249 252 254 255 256 258 258 258 259 259 258 259 259 259 260 260 261 262 262 261 262 262 262 262 261 260 259 258 258 259 261 262 263 266 269 272 274 275 274 273 272 272 273 274 274 274 274 273 273 271 265 263 269 274 278 280 282 285 289 291 291 291 290 290 291 292 292 291 291 292 292 294 298 301 302 305
206 209 212 216 218 222 228 232 237 242 245 249 252 254 256 258 259 260 261 260 261 262 262 263 263 263 263 263 264 265 265 265 265 264 262 262 261 260 260 261 261 262 264 268 272 274 275 275 274 274 274 274 275 274 274 275 274 273 269 265 266 271 275 277 278 280 284 287 290 290 288 287 288 290 291 291 291 292 292 293 294 297 299 300 303
209 211 212 213 213 217 223 226 232 238 241 245 250 252 255 257 258 259 261 262 263 264 265 265 265 265 266 267 268 269 269 269 269 269 268 268 267 266 265 264 263 263 265 267 269 270 272 274 275 276 277 277 276 275 276 277 278 277 276 274 273 273 274 276 277 279 283 286 288 287 286 286 287 289 289 289 290 291 292 293 295 297 299 302 304
198 196 197 202 206 213 220 225 232 239 244 248 252 255 259 262 263 266 269 270 271 271 271 271 271 272 274 275 275 275 274 273 274 275 276 276 275 272 270 267 266 265 266 267 268 268 269 270 271 274 275 276 276 276 276 278 279 279 279 278 276 275 275 276 278 280 283 284 284 284 285 285 286 288 289 288 289 290 291 292 294 297 300 303 305
190 193 199 208 215 221 228 234 240 245 249 254 257 260 262 265 267 270 273 273 272 273 273 273 274 274 275 275 275 275 275 276 277 278 278 277 276 274 272 270 269 267 267 266 266 266 265 265 265 267 268 269 271 272 273 274 276 277 277 277 276 276 276 276 279 283 284 283 283 285 287 287 287 287 288 287 288 289 289 291 293 296 299 302 304
205 211 217 222 226 230 234 238 243 247 251 255 257 259 261 264 266 269 271 272 274 275 275 276 277 277 277 278 278 279 279 280 280 279 278 277 276 275 274 273 271 270 268 264 261 260 260 260 260 262 263 265 267 269 270 272 274 274 275 276 277 276 276 277 282 288 289 286 287 291 291 288 286 286 286 286 286 287 288 290 292 295 299 302 304
219 223 228 230 233 237 239 243 247 251 254 256 257 258 260 263 267 270 273 274 276 277 277 278 279 279 280 281 280 280 280 280 279 278 278 277 277 276 276 275 273 271 268 263 259 257 257 258 260 262 264 266 268 271 273 273 273 274 275 277 278 278 278 281 286 292 292 289 290 293 292 287 284 284 284 285 286 287 288 290 292 295 298 301 304
229 232 235 237 240 243 246 249 253 256 257 258 259 259 261 263 266 270 274 275 276 276 276 277 278 279 280 280 280 279 278 277 277 277 277 277 277 276 276 275 273 272 267 262 259 258 258 259 261 264 266 268 270 272 273 273 275 277 279 280 280 279 278 282 286 289 288 286 288 292 292 286 282 282 283 283 285 287 288 290 292 295 298 301 303
239 241 242 244 247 249 251 253 256 257 257 258 258 259 261 264 267 270 272 274 275 277 278 279 279 280 280 280 280 280 280 279 278 277 276 276 276 276 276 274 272 269 265 261 260 259 258 259 262 264 266 269 271 272 274 277 280 282 281 280 277 275 275 280 283 282 281 282 284 290 291 285 279 279 281 282 284 286 288 291 294 296 298 301 304
248 250 251 253 254 255 257 258 258 259 259 258 259 261 265 268 272 274 275 276 277 279 280 281 282 282 282 282 281 281 282 282 282 281 279 276 275 274 275 274 269 262 256 257 261 263 264 264 265 266 267 270 273 276 279 280 280 278 277 275 274 274 278 280 279 278 278 280 284 289 290 283 276 277 280 280 282 285 288 291 294 296 299 302 304
256 257 258 259 260 261 263 263 263 264 264 265 267 271 274 276 279 280 281 281 282 282 282 283 283 283 283 283 282 282 281 281 280 280 280 280 279 276 272 269 265 258 250 248 253 258 262 265 268 270 272 273 274 275 275 275 274 274 274 275 276 278 280 279 277 276 278 280 284 288 286 279 275 277 279 280 282 285 287 290 293 296 299 302 304
262 262 263 264 265 267 268 269 269 270 271 273 276 278 280 281 282 282 282 283 282 282 282 282 281 281 280 281 281 280 279 276 274 273 274 276 276 273 268 266 265 263 258 252 249 250 254 257 260 263 265 267 268 269 270 272 273 274 276 278 280 280 279 276 275 276 278 281 283 284 281 275 274 276 277 279 282 284 287 290 292 295 299 301 303
265 266 267 269 269 270 272 272 273 274 275 277 279 280 281 281 281 281 280 280 280 280 280 279 278 277 276 276 276 275 274 274 272 269 267 268 269 269 266 264 262 261 259 258 255 253 252 253 255 257 260 262 264 267 269 271 273 275 277 279 280 279 278 277 277 278 280 283 284 281 277 274 274 275 276 279 281 283 286 289 292 295 298 299 301
267 268 270 272 273 274 275 276 277 277 278 279 279 279 280 280 280 280 280 279 279 279 278 278 276 275 273 272 271 271 271 272 272 270 267 265 265 265 263 260 258 257 256 257 258 258 257 257 258 260 262 264 266 268 270 272 274 276 278 280 281 281 282 283 284 285 286 286 284 280 275 273 274 276 277 278 280 283 286 289 292 294 296 297 299
267 268 269 270 272 273 274 275 276 276 277 278 278 279 279 280 280 281 280 280 280 279 278 277 275 272 270 268 266 266 267 269 270 270 269 266 263 260 258 256 256 256 257 258 259 261 262 263 264 265 266 268 269 271 272 275 277 279 280 281 282 283 284 284 286 287 287 285 282 278 276 274 274 275 276 277 281 285 287 289 292 294 295 296 297
265 267 268 268 270 271 272 273 275 276 277 278 279 280 281 281 281 282 281 281 281 280 279 278 275 272 270 268 266 266 267 267 268 270 269 267 263 259 257 256 258 259 261 263 264 265 266 267 269 270 271 272 273 275 277 278 279 280 281 281 281 282 282 283 285 285 285 283 280 278 276 275 274 274 276 279 282 285 287 289 291 292 293 294 295
263 264 265 266 268 270 272 274 276 277 278 280 280 281 282 282 282 282 282 282 282 282 281 280 278 275 273 270 268 267 266 266 266 267 267 267 266 264 263 263 264 265 266 267 268 269 270 272 273 274 275 277 278 278 279 279 279 278 279 279 281 283 285 287 287 285 282 280 279 277 276 275 275 276 279 281 283 285 287 289 291 291 291 292 293
258 260 262 264 267 269 271 274 275 277 279 280 281 281 282 282 282 282 283 284 284 284 283 283 281 278 276 273 270 269 268 268 268 267 267 268 268 268 268 268 268 269 269 269 270 271 272 274 275 276 277 277 277 276 276 276 276 278 279 282 285 287 288 287 284 281 279 278 277 277 276 277 278 280 282 283 285 286 288 288 289 290 290 290 290
257 260 262 264 267 269 271 274 276 278 279 279 280 280 280 280 281 283 284 284 285 284 283 282 280 278 276 274 273 272 273 273 270 267 266 267 267 267 268 268 268 269 270 270 271 272 273 273 274 274 274 274 274 274 275 277 279 282 285 287 287 287 286 284 281 278 277 276 276 277 278 280 281 282 283 285 287 287 288 288 289 289 289 288 288
261 263 264 266 268 270 272 274 276 277 277 277 278 278 280 281 283 283 283 283 281 280 278 277 275 273 272 270 269 268 268 268 268 267 267 267 267 268 268 267 267 268 268 269 270 270 270 271 270 270 271 272 273 275 278 281 283 286 287 287 286 285 284 283 281 278 276 276 277 279 281 281 282 284 285 287 288 287 287 288 288 288 288 288 288
266 266 267 268 269 271 274 275 276 276 276 277 279 280 282 283 283 282 281 280 278 277 275 274 272 271 270 269 268 267 266 266 268 269 270 270 269 268 266 265 265 266 267 267 268 268 269 269 269 268 270 272 274 277 281 283 285 286 286 285 285 284 283 282 280 278 277 278 279 280 281 281 283 286 286 286 286 286 286 287 288 288 289 289 287
267 267 268 269 271 274 276 276 277 279 280 281 283 284 284 283 282 281 279 279 278 277 276 275 273 272 271 270 270 269 269 269 270 270 271 272 270 267 264 262 263 264 264 265 266 267 268 269 269 269 270 272 274 277 280 281 281 282 283 283 283 283 283 282 280 279 280 281 281 281 282 284 285 286 286 285 285 285 285 287 287 288 289 288 286
266 266 267 269 271 274 276 277 279 282 283 284 285 285 284 283 282 280 279 279 279 278 277 276 275 274 273 273 272 272 271 271 271 271 271 270 268 266 263 261 261 261 262 262 264 266 267 269 271 272 272 273 274 275 277 277 278 279 280 281 282 282 282 282 282 282 283 283 282 283 284 285 285 285 284 284 284 284 284 286 287 287 287 287 286
268 268 270 273 275 277 279 281 283 284 284 285 285 285 283 283 282 281 281 281 280 280 279 279 278 277 276 275 274 273 272 271 271 269 267 267 266 266 267 266 266 265 265 266 268 270 271 273 275 276 277 276 275 274 274 275 276 277 278 278 279 281 281 282 283 283 283 283 283 284 284 285 285 284 283 283 283 284 284 284 285 285 285 284 284
270 272 274 277 279 281 283 284 284 284 285 285 284 284 284 284 284 284 284 283 283 282 282 280 279 278 277 276 275 274 273 272 271 269 268 268 269 270 271 272 272 272 272 273 275 277 279 280 280 280 279 278 276 275 275 276 276 277 278 278 278 280 281 282 283 283 283 283 284 284 284 284 284 284 283 283 283 282 282 282 282 281 281 281 281
274 276 277 279 281 282 284 284 284 285 285 285 285 285 285 284 284 284 283 284 283 283 281 280 278 278 277 277 276 275 274 274 273 272 272 273 273 272 273 273 273 274 276 277 279 280 282 283 282 281 279 278 278 278 278 277 277 278 278 278 279 280 281 282 282 282 282 283 284 284 284 285 284 284 283 283 281 280 280 280 279 279 279 279 279
278 279 281 282 283 284 284 285 285 285 285 285 285 285 284 283 283 283 283 283 282 281 280 279 279 278 278 277 276 275 274 274 274 273 272 271 270 271 272 273 275 276 279 280 281 281 281 280 279 278 277 277 279 279 279 279 279 279 280 280 281 282 282 282 281 282 282 283 283 284 284 284 284 284 283 281 280 279 279 278 277 277 277 277 278